| time (UTC) | temp F | wind direction | speed MPH | gust MPH | rain 1hr in | rain 24hr in | rain mn in | humidity % | barometer mb |
| 20260504201539 | 67 | 244 | 6.0 | 16.0 | 0.00 | 0.00 | 0.00 | 47 | 1005.1 |
| 20260504200034 | 66 | 268 | 8.0 | 20.0 | 0.00 | 0.00 | 0.00 | 48 | 1005.3 |
| 20260504194534 | 65 | 267 | 8.0 | 20.0 | 0.00 | 0.00 | 0.00 | 51 | 1005.4 |
| 20260504193031 | 64 | 271 | 11.0 | 24.0 | 0.00 | 0.00 | 0.00 | 53 | 1005.7 |
| 20260504191539 | 64 | 299 | 10.0 | 18.0 | 0.00 | 0.00 | 0.00 | 52 | 1005.7 |
| 20260504190035 | 64 | 291 | 12.0 | 23.0 | 0.00 | 0.00 | 0.00 | 53 | 1005.7 |
| 20260504184542 | 62 | 295 | 7.0 | 17.0 | 0.00 | 0.00 | 0.00 | 59 | 1005.9 |
| 20260504183032 | 59 | 319 | 9.0 | 17.0 | 0.00 | 0.00 | 0.00 | 61 | 1006.0 |
| 20260504181538 | 57 | 259 | 8.0 | 18.0 | 0.00 | 0.00 | 0.00 | 62 | 1006.3 |
| 20260504180032 | 57 | 271 | 7.0 | 18.0 | 0.00 | 0.00 | 0.00 | 64 | 1006.5 |
| 20260504174538 | 57 | 298 | 7.0 | 17.0 | 0.00 | 0.00 | 0.00 | 62 | 1006.4 |
| 20260504173033 | 57 | 323 | 7.0 | 16.0 | 0.00 | 0.00 | 0.00 | 61 | 1006.4 |
| 20260504171535 | 57 | 281 | 9.0 | 17.0 | 0.00 | 0.00 | 0.00 | 62 | 1006.4 |
| 20260504081535 | 31 | 123 | 1.0 | 3.0 | 0.00 | 0.00 | 0.00 | 88 | 1007.9 |
| 20260504044532 | 32 | 110 | 1.0 | 3.0 | 0.00 | 0.00 | 0.00 | 88 | 1007.3 |
| 20260504043030 | 32 | 0 | 1.0 | 4.0 | 0.00 | 0.00 | 0.00 | 88 | 1007.4 |
| 20260504041534 | 32 | 116 | 2.0 | 3.0 | 0.00 | 0.00 | 0.00 | 88 | 1007.5 |
| 20260504040038 | 33 | 121 | 1.0 | 3.0 | 0.00 | 0.00 | 0.00 | 87 | 1007.4 |
| 20260504034535 | 33 | 125 | 1.0 | 2.0 | 0.00 | 0.00 | 0.00 | 85 | 1007.4 |
| 20260504033047 | 34 | 127 | 1.0 | 2.0 | 0.00 | 0.00 | 0.00 | 84 | 1007.4 |
| 20260504031536 | 35 | 0 | 1.0 | 3.0 | 0.00 | 0.00 | 0.00 | 82 | 1007.3 |
| 20260504030037 | 35 | 125 | 1.0 | 3.0 | 0.00 | 0.00 | 0.00 | 83 | 1007.3 |
| 20260504024544 | 35 | 117 | 1.0 | 4.0 | 0.00 | 0.00 | 0.00 | 81 | 1007.3 |
| 20260504023035 | 36 | 153 | 0.0 | 3.0 | 0.00 | 0.00 | 0.00 | 81 | 1007.4 |
| 20260504021536 | 36 | 290 | 0.0 | 4.0 | 0.00 | 0.00 | 0.00 | 80 | 1007.3 |
| 20260504020034 | 37 | 238 | 0.0 | 3.0 | 0.00 | 0.00 | 0.00 | 77 | 1007.2 |
| 20260504014532 | 38 | 246 | 1.0 | 3.0 | 0.00 | 0.01 | 0.00 | 75 | 1007.2 |
| 20260504013041 | 38 | 0 | 0.0 | 2.0 | 0.00 | 0.01 | 0.00 | 74 | 1007.2 |
| 20260504011535 | 39 | 0 | 0.0 | 4.0 | 0.00 | 0.01 | 0.00 | 70 | 1007.2 |
| 20260504010032 | 40 | 272 | 1.0 | 6.0 | 0.00 | 0.01 | 0.00 | 71 | 1007.1 |
| 20260504004541 | 41 | 282 | 3.0 | 11.0 | 0.00 | 0.02 | 0.00 | 68 | 1006.8 |
| 20260504003031 | 42 | 264 | 5.0 | 11.0 | 0.00 | 0.02 | 0.00 | 64 | 1006.5 |
| 20260504001534 | 43 | 278 | 3.0 | 7.0 | 0.00 | 0.02 | 0.00 | 61 | 1006.5 |
| 20260504000035 | 44 | 251 | 3.0 | 10.0 | 0.00 | 0.02 | 0.00 | 59 | 1006.3 |
| 20260503234535 | 45 | 284 | 6.0 | 14.0 | 0.00 | 0.04 | 0.00 | 58 | 1006.2 |
| 20260503233034 | 45 | 266 | 5.0 | 14.0 | 0.00 | 0.04 | 0.00 | 58 | 1006.1 |
| 20260503231531 | 45 | 360 | 6.0 | 17.0 | 0.00 | 0.04 | 0.00 | 57 | 1006.0 |
| 20260503230037 | 46 | 340 | 3.0 | 12.0 | 0.00 | 0.04 | 0.00 | 59 | 1005.7 |
| 20260503224535 | 47 | 300 | 5.0 | 13.0 | 0.00 | 0.05 | 0.00 | 51 | 1005.5 |
| 20260503223035 | 48 | 341 | 4.0 | 13.0 | 0.00 | 0.05 | 0.00 | 52 | 1005.4 |
| 20260503221536 | 48 | 5 | 5.0 | 17.0 | 0.00 | 0.05 | 0.00 | 49 | 1005.3 |
| 20260503220038 | 49 | 340 | 8.0 | 23.0 | 0.00 | 0.05 | 0.00 | 49 | 1005.1 |
| 20260503214531 | 50 | 279 | 9.0 | 21.0 | 0.00 | 0.05 | 0.00 | 48 | 1005.0 |
| 20260503213032 | 50 | 51 | 8.0 | 22.0 | 0.00 | 0.05 | 0.00 | 49 | 1005.0 |
| 20260503211538 | 50 | 45 | 5.0 | 18.0 | 0.00 | 0.05 | 0.00 | 50 | 1004.8 |
| 20260503210032 | 49 | 318 | 5.0 | 25.0 | 0.00 | 0.05 | 0.00 | 52 | 1004.6 |
| 20260503204534 | 50 | 277 | 7.0 | 16.0 | 0.00 | 0.06 | 0.00 | 50 | 1004.5 |
| 20260503203034 | 51 | 286 | 7.0 | 17.0 | 0.00 | 0.06 | 0.00 | 49 | 1004.4 |